Stations météo

réclame
Mon MeteoGroup
Ploumanach, France (7117): Température de l'air & dewpoint: 30.11.2019 15:00:00 - 06.12.2019 15:00:00 (CET)Ploumanach, France (7117): Vitesse du vent & gusts: 30.11.2019 15:00:00 - 06.12.2019 15:00:00 (CET)Ploumanach, France (7117): Direction du vent: 30.11.2019 15:00:00 - 06.12.2019 15:00:00 (CET)Ploumanach, France (7117): reduced air pressure: 30.11.2019 15:00:00 - 06.12.2019 15:00:00 (CET)Ploumanach, France (7117): visibility: 30.11.2019 15:00:00 - 06.12.2019 15:00:00 (CET)Ploumanach, France (7117): Quantités de précipitations: 30.11.2019 15:00:00 - 06.12.2019 15:00:00 (CET)
Date & Time tt [°C] td [°C] ff [km/h] ff [knt] fx [km/h] fx [knt] dd ppp [hPa] vv [km] rr [mm]
06.12.2019 15:00:00 - - - - - - - - - -
06.12.2019 14:00:00 12,3 11,8 37 20 61 33 WSW 1011,8 - 0,4
06.12.2019 13:00:00 12,9 11,3 36 19 63 34 SW 1011,3 8 0,0
06.12.2019 12:00:00 12,5 11,4 31 17 62 33 SW 1013,3 - 0,0
06.12.2019 11:00:00 12,3 11,0 30 16 56 30 SW 1013,9 - 0,0
06.12.2019 10:00:00 11,6 10,7 33 18 61 33 SW 1014,3 8 0,0
06.12.2019 09:00:00 11,4 10,3 31 17 55 30 SW 1014,4 - 0,0
06.12.2019 08:00:00 11,4 10,0 34 19 55 30 SW 1014,9 - 0,0
06.12.2019 07:00:00 11,0 10,1 34 19 56 31 SW 1015,1 - 0,2
06.12.2019 06:00:00 10,9 9,7 29 15 54 29 SW 1014,9 - 0,0
06.12.2019 05:00:00 10,3 9,5 29 16 48 26 SW 1016,1 - 0,2
06.12.2019 04:00:00 10,3 9,1 30 16 49 27 SW 1016,6 - 0,0
06.12.2019 03:00:00 10,6 8,4 25 14 52 28 SW 1017,3 - 0,0
06.12.2019 02:00:00 10,5 8,3 27 14 50 27 SW 1018,0 - 0,0
06.12.2019 01:00:00 10,1 8,4 26 14 42 23 SW 1018,7 - 0,0
06.12.2019 00:00:00 9,5 8,1 24 13 37 20 SW 1019,4 - 0,0
05.12.2019 23:00:00 9,2 7,6 22 12 35 19 SW 1020,1 - 0,0
05.12.2019 22:00:00 9,0 6,8 22 12 43 23 SW 1020,7 - 0,0
05.12.2019 21:00:00 8,8 5,9 26 14 40 22 SW 1021,1 - 0,0
05.12.2019 20:00:00 8,9 5,6 21 11 35 19 SW 1021,7 - 0,0
05.12.2019 19:00:00 8,9 5,5 20 11 34 18 SSW 1021,8 - 0,0
05.12.2019 18:00:00 8,9 5,1 16 9 26 14 SSW 1021,8 - 0,0
05.12.2019 17:00:00 9,0 5,4 14 8 23 13 SW 1022,1 - 0,0
05.12.2019 16:00:00 9,5 5,7 11 6 24 13 SW 1022,6 - 0,0
05.12.2019 15:00:00 10,2 5,4 13 7 27 15 SW 1022,9 - 0,0
05.12.2019 14:00:00 10,8 5,3 15 8 27 15 SSW 1023,4 - 0,0
05.12.2019 13:00:00 9,9 4,9 12 7 24 13 SSW 1024,2 18 0,0
05.12.2019 12:00:00 9,7 5,3 12 7 20 11 SSW 1024,5 - 0,0
05.12.2019 11:00:00 8,5 5,1 11 6 17 9 SSW 1024,8 - 0,0
05.12.2019 10:00:00 8,2 4,8 8 5 13 7 SSW 1024,8 18 0,0
05.12.2019 09:00:00 8,7 4,1 3 2 14 8 WNW 1024,3 - 0,0
05.12.2019 08:00:00 8,8 4,4 9 5 18 10 NNE 1023,9 - 0,0
05.12.2019 07:00:00 8,6 4,4 10 5 21 12 NNE 1023,6 15 0,0
05.12.2019 06:00:00 7,8 3,8 9 5 21 11 NNE 1023,4 - 0,0
05.12.2019 05:00:00 8,1 3,9 13 7 25 14 N 1022,7 - 0,0
05.12.2019 04:00:00 7,5 3,5 13 7 24 13 N 1023,0 - 0,0
05.12.2019 03:00:00 6,9 3,3 8 4 16 9 NW 1022,8 - 0,0
05.12.2019 02:00:00 5,6 3,8 7 4 15 8 SSW 1022,8 - 0,0
05.12.2019 01:00:00 5,1 3,4 10 6 14 8 SW 1022,8 - 0,0
05.12.2019 00:00:00 4,9 3,1 9 5 11 6 SSW 1022,4 - 0,0
04.12.2019 23:00:00 4,8 3,1 6 4 13 7 SW 1022,2 - 0,0
04.12.2019 22:00:00 4,3 2,8 10 5 15 8 S 1021,9 - 0,0
04.12.2019 21:00:00 3,6 2,4 10 6 14 8 SSW 1021,8 - 0,0
04.12.2019 20:00:00 3,3 1,8 8 5 14 7 SSW 1021,5 - 0,0
04.12.2019 19:00:00 2,5 1,5 8 4 12 6 SSW 1021,0 5 0,0
04.12.2019 18:00:00 2,3 1,1 8 5 12 7 SSW 1020,5 - 0,0
04.12.2019 17:00:00 2,4 1,1 6 3 10 5 SW 1019,8 - 0,0
04.12.2019 16:00:00 2,7 1,2 4 2 9 5 WSW 1019,6 3,0 0,0
04.12.2019 15:00:00 2,7 1,1 4 2 15 8 S 1019,4 - 0,0
04.12.2019 14:00:00 2,8 1,3 8 5 21 11 SSE 1019,4 - 0,0
04.12.2019 13:00:00 2,6 1,1 10 6 21 11 SSE 1019,4 2,0 0,0
04.12.2019 12:00:00 2,2 0,9 11 6 22 12 SSE 1020,0 - 0,0
04.12.2019 11:00:00 1,9 0,9 12 7 22 12 SSE 1019,9 - 0,0
04.12.2019 10:00:00 1,1 0,8 10 5 17 9 SSE 1019,6 8 0,0
04.12.2019 09:00:00 0,5 0,4 7 4 19 10 S 1019,3 - 0,0
04.12.2019 08:00:00 0,1 0,0 7 4 16 8 SE 1019,2 - 0,0
04.12.2019 07:00:00 0,0 -0,1 4 2 22 12 SSE 1019,4 - 0,0
04.12.2019 06:00:00 -0,1 -0,2 11 6 21 12 E 1019,1 - 0,0
04.12.2019 05:00:00 0,5 -0,2 10 5 19 11 ESE 1019,3 - 0,0
04.12.2019 04:00:00 2,1 0,9 11 6 18 10 ESE 1020,0 - 0,0
04.12.2019 03:00:00 2,8 1,5 11 6 18 10 ESE 1020,6 - 0,0
04.12.2019 02:00:00 3,2 1,4 9 5 21 11 ESE 1021,0 - 0,0
04.12.2019 01:00:00 3,7 1,6 10 5 24 13 SE 1021,6 - 0,0
04.12.2019 00:00:00 4,9 2,6 13 7 27 15 SE 1022,2 - 0,0
03.12.2019 23:00:00 5,7 2,9 12 6 21 11 E 1022,2 - 0,0
03.12.2019 22:00:00 6,0 2,5 11 6 26 14 E 1022,9 - 0,0
03.12.2019 21:00:00 5,3 3,1 12 7 19 10 E 1023,4 - 0,0
03.12.2019 20:00:00 5,2 2,5 6 4 11 6 E 1024,1 - 0,0
03.12.2019 19:00:00 5,3 2,3 4 2 15 8 E 1024,2 - 0,0
03.12.2019 18:00:00 6,2 2,8 9 5 20 11 ESE 1024,3 - 0,0
03.12.2019 17:00:00 7,3 2,6 10 5 19 11 E 1024,8 - 0,0
03.12.2019 16:00:00 8,1 2,3 14 7 23 12 E 1025,0 40 0,0
03.12.2019 15:00:00 8,4 3,0 11 6 22 12 ESE 1025,8 - 0,0
03.12.2019 14:00:00 8,4 3,6 10 5 22 12 ESE 1026,9 - 0,0
03.12.2019 13:00:00 8,2 3,4 10 6 19 10 ESE 1027,8 20 0,0
03.12.2019 12:00:00 7,9 2,8 8 4 16 9 ESE 1029,0 - 0,0
03.12.2019 11:00:00 7,0 2,5 8 4 20 11 SE 1029,4 - 0,0
03.12.2019 10:00:00 5,9 2,2 12 6 23 13 SSE 1029,7 20 0,0
03.12.2019 09:00:00 4,3 1,7 11 6 21 11 SSE 1029,9 - 0,0
03.12.2019 08:00:00 5,1 1,8 10 6 18 10 SSE 1029,9 - 0,0
03.12.2019 07:00:00 5,0 2,0 10 6 17 9 SSE 1030,1 20 0,0
03.12.2019 06:00:00 5,0 2,4 11 6 17 9 SSE 1029,9 - 0,0
03.12.2019 05:00:00 4,6 2,0 10 6 18 10 SSE 1030,2 - 0,0
03.12.2019 04:00:00 6,1 2,2 7 4 17 9 SE 1030,7 - 0,0
03.12.2019 03:00:00 6,4 2,3 7 4 14 8 ESE 1031,1 - 0,0
03.12.2019 02:00:00 6,2 2,3 7 4 12 7 ESE 1031,3 - 0,0
03.12.2019 01:00:00 6,0 2,3 4 2 10 5 ESE 1031,7 - 0,0
03.12.2019 00:00:00 6,2 1,9 5 3 11 6 ESE 1031,9 - 0,0
02.12.2019 23:00:00 6,9 2,6 7 4 13 7 ESE 1031,7 - 0,0
02.12.2019 22:00:00 6,6 1,7 5 3 13 7 E 1032,2 - 0,0
02.12.2019 21:00:00 7,5 2,4 6 3 21 11 E 1032,1 - 0,0
02.12.2019 20:00:00 7,7 2,8 14 8 23 13 NE 1032,1 - 0,0
02.12.2019 19:00:00 7,7 2,4 14 8 23 12 NE 1032,1 - 0,0
02.12.2019 18:00:00 7,6 2,3 12 6 21 12 NE 1032,0 - 0,0
02.12.2019 17:00:00 7,9 2,1 15 8 24 13 NE 1032,2 - 0,0
02.12.2019 16:00:00 8,4 2,4 16 8 22 12 NE 1031,8 25 0,0
02.12.2019 15:00:00 8,7 2,0 16 9 24 13 NE 1031,7 - 0,0
02.12.2019 14:00:00 8,7 2,3 16 9 26 14 NE 1031,9 - 0,0
02.12.2019 13:00:00 10,3 3,6 16 8 31 17 NE 1032,2 20 0,0
02.12.2019 12:00:00 9,7 3,2 21 11 34 18 ENE 1032,5 - 0,0
02.12.2019 11:00:00 9,1 2,9 24 13 40 21 NE 1032,4 - 0,0
02.12.2019 10:00:00 8,4 2,6 31 17 43 23 NE 1031,9 20 0,0
02.12.2019 09:00:00 8,4 2,6 30 16 39 21 NE 1031,3 - 0,0
02.12.2019 08:00:00 8,4 2,8 25 14 38 20 NE 1030,8 - 0,0
02.12.2019 07:00:00 8,4 1,8 28 15 40 22 NE 1030,4 10 0,0
02.12.2019 06:00:00 8,2 0,9 26 14 41 22 NE 1029,7 - 0,0
02.12.2019 05:00:00 8,4 1,8 31 17 44 24 NE 1029,3 - 0,0
02.12.2019 04:00:00 8,7 1,6 31 17 49 26 NE 1028,9 - 0,0
02.12.2019 03:00:00 8,9 3,1 38 20 50 27 NE 1028,4 - 0,0
02.12.2019 02:00:00 9,0 2,5 36 20 54 29 NE 1027,9 - 0,0
02.12.2019 01:00:00 9,0 2,3 37 20 57 31 NE 1027,6 - 0,0
02.12.2019 00:00:00 9,1 4,1 42 23 62 33 NE 1027,1 - 0,0
01.12.2019 23:00:00 9,2 4,2 43 23 58 31 NE 1026,5 - 0,0
01.12.2019 22:00:00 9,3 3,9 43 23 59 32 NE 1025,9 - 0,0
01.12.2019 21:00:00 9,2 1,1 42 23 60 32 NNE 1025,0 - 0,0
01.12.2019 20:00:00 9,1 2,0 44 24 63 34 NE 1024,6 - 0,0
01.12.2019 19:00:00 9,2 3,4 42 23 60 32 NE 1023,9 - 0,0
01.12.2019 18:00:00 9,0 3,6 42 23 61 33 NNE 1022,8 - 0,0
01.12.2019 17:00:00 9,2 4,0 46 25 66 35 NE 1021,8 - 0,0
01.12.2019 16:00:00 9,2 4,4 46 25 66 35 NE 1020,4 12 0,0
01.12.2019 15:00:00 8,8 5,7 43 23 61 33 NE 1019,7 - 0,0
01.12.2019 14:00:00 9,3 4,3 42 23 64 34 ENE 1019,5 - 0,0
01.12.2019 13:00:00 9,8 4,6 44 24 72 39 ENE 1019,1 8 0,0
01.12.2019 12:00:00 9,5 3,7 54 29 72 39 NE 1018,5 - 0,0
01.12.2019 11:00:00 9,6 4,8 49 26 67 36 NE 1017,8 - 0,0
01.12.2019 10:00:00 9,3 5,1 45 24 65 35 ENE 1016,8 8 0,0
01.12.2019 09:00:00 9,1 5,3 46 25 59 32 NE 1015,7 - 0,0
01.12.2019 08:00:00 8,9 5,1 40 21 58 31 NE 1014,9 - 0,0
01.12.2019 07:00:00 8,6 4,8 40 22 57 31 ENE 1014,0 8 0,0
01.12.2019 06:00:00 8,2 4,8 42 23 59 32 NE 1013,6 - 0,0
01.12.2019 05:00:00 7,7 6,3 23 13 51 28 ENE 1013,2 - 0,0
01.12.2019 04:00:00 7,5 6,3 26 14 49 26 ENE 1013,3 - 0,0
01.12.2019 03:00:00 7,6 6,1 34 18 49 26 ENE 1013,2 - 0,2
01.12.2019 02:00:00 7,9 7,0 21 12 39 21 ENE 1013,2 - 0,4
01.12.2019 01:00:00 8,0 7,2 19 11 36 19 E 1013,2 - 1,2
01.12.2019 00:00:00 7,9 7,0 16 9 29 15 E 1013,1 - 0,4
30.11.2019 23:00:00 8,3 7,1 16 9 28 15 E 1012,8 - 0,0
30.11.2019 22:00:00 8,3 7,1 19 10 40 21 E 1012,8 - 0,2
30.11.2019 21:00:00 8,4 7,8 24 13 40 22 E 1012,2 - 1,0
30.11.2019 20:00:00 8,5 7,7 22 12 35 19 E 1012,0 - 0,0
30.11.2019 19:00:00 8,4 7,3 18 10 37 20 E 1011,8 - 0,0
30.11.2019 18:00:00 8,5 7,3 21 12 41 22 E 1011,2 - 0,0
30.11.2019 17:00:00 8,5 7,3 21 12 37 20 ESE 1010,6 - 0,0
30.11.2019 16:00:00 8,4 7,5 20 11 35 19 ESE 1010,3 8 0,4
30.11.2019 15:00:00 8,2 7,4 18 10 38 20 ESE 1010,6 - 1,4

tt = Température de l'air
td = dewpoint
ff = Vitesse du vent
fx = gusts
dd = Direction du vent
ppp = reduced air pressure
vv = visibility
rr = Quantités de précipitations

stations d'obs. à proximité